History for KNYNEWYO639

Roof of a 1 story trailer, New York, NY — Current Conditions
Daily Summary for January 21, 2018
  Current: High: Low: Average:
Temperature: 45.7°F 51.6°F 39.4°F 45.5°F
Dew Point: 36.0°F 36.0°F 29.0°F 32.2°F
Humidity: 68% 68% 48% 60%
Wind Speed: 6.1mph 25.6mph - 3.0mph
Wind Gust: 7.0mph 25.6mph - -
Wind: East - - ESE
Pressure: 30.22in 30.27in 30.10in -
Precipitation: 0.00in      
Statistics for the rest of the month
    High: Low: Average:
Temperature:   62.4°F 4.5°F 26.8°F
Dew Point:   61.0°F -6.0°F 18.9°F
Humidity:   99.0% 31.0% 69.3%
Wind Speed:   35.4mph from the SW - 9.4mph
Wind Gust:   41.0mph from the SW - -
Wind:   - - South
Pressure:   30.70in 29.28in -
Precipitation:   0.00in    
KNYNEWYO639 Weather Graph
Tabular Data for January 21, 2018
Time Temp. Windchill Dew Point Pressure Wind Gust Humidity Rainfall
00:02 42.7°F 39.4°F 31.0°F 30.11in 6.0mph 60% 0.00in
00:07 42.5°F 39.6°F 31.0°F 30.10in 6.0mph 61% 0.00in
00:12 42.2°F 40.5°F 29.0°F 30.11in 6.0mph 61% 0.00in
00:17 42.2°F 40.3°F 31.0°F 30.10in 6.0mph 62% 0.00in
00:22 42.2°F 40.1°F 31.0°F 30.10in 9.0mph 62% 0.00in
00:27 42.1°F 39.8°F 31.0°F 30.10in 5.0mph 62% 0.00in
00:32 42.2°F - 31.0°F 30.10in 8.0mph 62% 0.00in
00:42 42.3°F 40.7°F 31.0°F 30.10in 6.0mph 62% 0.00in
00:47 42.2°F 40.5°F 31.0°F 30.10in 4.0mph 62% 0.00in
00:52 42.2°F - 31.0°F 30.10in 4.0mph 62% 0.00in
00:57 42.3°F - 31.0°F 30.10in 3.0mph 62% 0.00in
01:02 42.3°F - 31.0°F 30.11in 5.0mph 62% 0.00in
01:07 42.3°F - 31.0°F 30.11in 2.0mph 62% 0.00in
01:12 42.2°F - 31.0°F 30.10in 4.0mph 62% 0.00in
01:22 42.2°F - 31.0°F 30.11in 4.0mph 62% 0.00in
01:27 42.0°F - 31.0°F 30.11in 4.0mph 62% 0.00in
01:32 41.7°F 39.1°F 31.0°F 30.11in 5.0mph 62% 0.00in
01:37 41.4°F - 29.0°F 30.11in 4.0mph 63% 0.00in
01:42 41.3°F - 29.0°F 30.12in 4.0mph 63% 0.00in
01:47 41.3°F - 29.0°F 30.11in 4.0mph 63% 0.00in
01:52 41.5°F - 31.0°F 30.11in 3.0mph 63% 0.00in
01:57 41.5°F - 31.0°F 30.12in 4.0mph 63% 0.00in
02:07 41.5°F - 31.0°F 30.13in 4.0mph 63% 0.00in
02:12 41.5°F - 31.0°F 30.13in 4.0mph 63% 0.00in
02:22 41.6°F - 31.0°F 30.13in 3.0mph 63% 0.00in
02:32 41.4°F - 29.0°F 30.13in 3.0mph 63% 0.00in
02:37 41.4°F - 29.0°F 30.13in 3.0mph 63% 0.00in
02:42 41.5°F - 31.0°F 30.13in 3.0mph 63% 0.00in
02:47 41.6°F - 31.0°F 30.13in 3.0mph 63% 0.00in
02:52 41.5°F - 31.0°F 30.12in 3.0mph 63% 0.00in
02:57 41.2°F - 29.0°F 30.12in 1.2mph 63% 0.00in
03:02 41.0°F - 31.0°F 30.12in 2.0mph 64% 0.00in
03:07 41.0°F - 31.0°F 30.12in 2.3mph 64% 0.00in
03:12 41.0°F - 31.0°F 30.12in 3.0mph 64% 0.00in
03:17 41.0°F - 31.0°F 30.13in 2.0mph 64% 0.00in
03:22 41.0°F - 31.0°F 30.12in 2.6mph 64% 0.00in
03:27 41.0°F - 31.0°F 30.13in 3.0mph 64% 0.00in
03:32 41.0°F - 31.0°F 30.12in 1.0mph 64% 0.00in
03:42 40.8°F - 31.0°F 30.13in 4.0mph 64% 0.00in
03:47 40.6°F 38.3°F 31.0°F 30.13in 4.0mph 65% 0.00in
03:52 40.7°F - 31.0°F 30.13in 3.0mph 65% 0.00in
03:57 40.8°F - 31.0°F 30.12in 3.0mph 65% 0.00in
04:02 41.0°F - 31.0°F 30.13in 2.0mph 65% 0.00in
04:07 41.0°F - 31.0°F 30.13in 2.0mph 65% 0.00in
04:12 40.8°F - 31.0°F 30.13in 3.0mph 65% 0.00in
04:17 40.7°F - 31.0°F 30.13in 3.0mph 65% 0.00in
04:22 40.8°F 37.9°F 31.0°F 30.14in 5.0mph 65% 0.00in
04:27 40.9°F 38.7°F 31.0°F 30.14in 6.0mph 65% 0.00in
04:32 40.9°F 39.1°F 31.0°F 30.14in 6.0mph 65% 0.00in
04:37 40.8°F - 31.0°F 30.14in 5.0mph 65% 0.00in
04:42 40.9°F - 31.0°F 30.14in 7.0mph 65% 0.00in
04:47 41.0°F - 31.0°F 30.14in 3.0mph 65% 0.00in
04:52 41.1°F - 31.0°F 30.14in 2.0mph 64% 0.00in
04:57 41.2°F - 31.0°F 30.14in 2.0mph 64% 0.00in
05:02 41.1°F - 31.0°F 30.15in 2.0mph 64% 0.00in
05:07 40.8°F - 31.0°F 30.15in 2.3mph 64% 0.00in
05:12 40.5°F 38.6°F 31.0°F 30.15in 3.3mph 65% 0.00in
05:17 40.3°F - 29.0°F 30.16in 4.0mph 65% 0.00in
05:22 40.5°F - 31.0°F 30.16in 2.0mph 66% 0.00in
05:27 40.8°F - 31.0°F 30.15in 2.1mph 66% 0.00in
05:32 40.8°F - 31.0°F 30.16in 4.0mph 65% 0.00in
05:37 40.8°F - 31.0°F 30.16in 3.0mph 65% 0.00in
05:42 40.7°F - 31.0°F 30.16in 4.0mph 65% 0.00in
05:47 40.6°F - 31.0°F 30.16in 4.0mph 65% 0.00in
05:52 40.4°F - 29.0°F 30.17in 3.0mph 65% 0.00in
05:57 40.3°F - 31.0°F 30.17in 3.0mph 66% 0.00in
06:02 40.2°F - 31.0°F 30.17in 4.0mph 66% 0.00in
06:07 40.2°F - 31.0°F 30.17in 4.0mph 66% 0.00in
06:12 40.3°F - 31.0°F 30.17in 4.0mph 66% 0.00in
06:17 40.2°F - 31.0°F 30.17in 3.0mph 66% 0.00in
06:22 40.2°F - 31.0°F 30.18in 3.0mph 66% 0.00in
06:27 40.1°F - 31.0°F 30.18in 3.0mph 67% 0.00in
06:32 40.0°F - 31.0°F 30.18in 4.0mph 67% 0.00in
06:37 39.8°F 37.6°F 31.0°F 30.18in 4.0mph 67% 0.00in
06:42 39.8°F - 31.0°F 30.18in 4.0mph 67% 0.00in
06:47 39.8°F - 31.0°F 30.19in 3.0mph 67% 0.00in
06:52 39.7°F - 31.0°F 30.19in 3.0mph 68% 0.00in
06:57 39.5°F 37.5°F 31.0°F 30.19in 4.0mph 68% 0.00in
07:02 39.4°F - 29.0°F 30.20in 4.0mph 68% 0.00in
07:07 39.6°F - 31.0°F 30.19in 3.0mph 68% 0.00in
07:12 39.9°F - 31.0°F 30.20in 3.0mph 68% 0.00in
07:17 39.9°F - 31.0°F 30.19in 2.3mph 68% 0.00in
07:22 39.9°F - 31.0°F 30.19in 2.0mph 68% 0.00in
07:27 39.9°F - 31.0°F 30.20in 3.0mph 68% 0.00in
07:32 39.9°F 37.5°F 31.0°F 30.20in 3.7mph 68% 0.00in
07:37 39.8°F 36.7°F 31.0°F 30.20in 5.0mph 68% 0.00in
07:42 39.9°F - 31.0°F 30.20in 5.0mph 68% 0.00in
07:47 40.1°F - 31.0°F 30.21in 4.0mph 68% 0.00in
07:52 40.1°F - 31.0°F 30.21in 4.0mph 68% 0.00in
07:57 40.2°F - 31.0°F 30.21in 4.0mph 68% 0.00in
08:02 40.3°F - 31.0°F 30.21in 3.0mph 68% 0.00in
08:07 40.5°F - 31.0°F 30.21in 3.0mph 67% 0.00in
08:12 40.6°F 38.7°F 31.0°F 30.21in 3.3mph 67% 0.00in
08:17 40.8°F - 31.0°F 30.21in 7.0mph 67% 0.00in
08:22 41.2°F - 31.0°F 30.21in 6.0mph 67% 0.00in
08:27 41.6°F - 32.0°F 30.22in 2.0mph 66% 0.00in
08:32 41.7°F - 32.0°F 30.21in 3.0mph 66% 0.00in
08:37 41.8°F - 32.0°F 30.22in 3.0mph 65% 0.00in
08:42 42.0°F - 32.0°F 30.22in 3.0mph 65% 0.00in
08:47 42.2°F - 32.0°F 30.22in 3.0mph 65% 0.00in
08:52 42.4°F - 32.0°F 30.23in 2.0mph 65% 0.00in
08:57 42.6°F - 32.0°F 30.23in 2.0mph 65% 0.00in
09:02 43.0°F - 32.0°F 30.24in 2.0mph 65% 0.00in
09:07 43.5°F - 33.0°F 30.24in 3.0mph 64% 0.00in
09:12 44.0°F - 32.0°F 30.24in 1.0mph 63% 0.00in
09:17 44.7°F - 33.0°F 30.24in 1.0mph 62% 0.00in
09:22 45.2°F - 32.0°F 30.25in 1.2mph 60% 0.00in
09:27 45.5°F - 32.0°F 30.25in 2.0mph 59% 0.00in
09:32 45.6°F - 32.0°F 30.25in 2.0mph 59% 0.00in
09:37 45.8°F - 32.0°F 30.26in 17.0mph 59% 0.00in
09:42 46.3°F - 32.0°F 30.26in 3.0mph 58% 0.00in
09:47 46.3°F - 32.0°F 30.26in 1.0mph 58% 0.00in
09:52 46.7°F - 33.0°F 30.26in 1.0mph 58% 0.00in
09:57 47.6°F - 33.0°F 30.26in 0.0mph 57% 0.00in
10:02 48.6°F - 33.0°F 30.26in 0.0mph 55% 0.00in
10:07 48.9°F - 33.0°F 30.26in 0.0mph 53% 0.00in
10:12 48.8°F - 32.0°F 30.26in 1.0mph 52% 0.00in
10:17 48.6°F - 33.0°F 30.27in 16.0mph 53% 0.00in
10:22 48.2°F - 32.0°F 30.26in 16.0mph 53% 0.00in
10:27 47.9°F - 32.0°F 30.27in 4.7mph 54% 0.00in
10:32 47.5°F - 32.0°F 30.26in 9.0mph 54% 0.00in
10:37 46.6°F - 32.0°F 30.26in 11.0mph 55% 0.00in
10:42 45.8°F 41.5°F 31.0°F 30.26in 12.0mph 55% 0.00in
10:47 45.2°F 39.8°F 31.0°F 30.26in 12.0mph 56% 0.00in
10:52 44.8°F 40.7°F 31.0°F 30.26in 14.0mph 57% 0.00in
10:57 44.5°F 40.1°F 31.0°F 30.25in 10.0mph 58% 0.00in
11:02 44.4°F 40.3°F 31.0°F 30.26in 11.0mph 59% 0.00in
11:07 44.5°F 41.0°F 32.0°F 30.26in 11.0mph 59% 0.00in
11:12 44.6°F 40.8°F 31.0°F 30.25in 9.0mph 58% 0.00in
11:17 44.6°F 40.2°F 32.0°F 30.24in 10.0mph 59% 0.00in
11:22 44.9°F 41.7°F 31.0°F 30.25in 10.0mph 58% 0.00in
11:27 45.4°F 43.8°F 31.0°F 30.25in 7.0mph 58% 0.00in
11:32 45.8°F - 32.0°F 30.25in 4.0mph 57% 0.00in
11:37 45.8°F 44.6°F 32.0°F 30.25in 4.0mph 57% 0.00in
11:42 45.9°F 42.4°F 32.0°F 30.24in 9.0mph 57% 0.00in
11:47 46.0°F 42.4°F 32.0°F 30.24in 9.0mph 57% 0.00in
11:52 45.8°F 43.4°F 32.0°F 30.24in 9.0mph 57% 0.00in
11:57 45.6°F 43.1°F 32.0°F 30.24in 7.0mph 57% 0.00in
12:02 45.8°F - 32.0°F 30.24in 5.0mph 57% 0.00in
12:07 46.1°F - 32.0°F 30.23in 3.0mph 57% 0.00in
12:12 46.5°F - 32.0°F 30.23in 4.0mph 56% 0.00in
12:17 46.9°F - 32.0°F 30.23in 7.2mph 55% 0.00in
12:22 47.1°F - 31.0°F 30.22in 17.0mph 54% 0.00in
12:27 47.1°F - 31.0°F 30.22in 6.0mph 54% 0.00in
12:32 47.1°F - 31.0°F 30.22in 5.0mph 54% 0.00in
12:37 47.0°F - 31.0°F 30.22in 5.0mph 54% 0.00in
12:42 47.0°F - 32.0°F 30.22in 6.0mph 55% 0.00in
12:47 47.2°F - 31.0°F 30.22in 6.0mph 54% 0.00in
12:52 47.2°F - 31.0°F 30.22in 4.0mph 54% 0.00in
12:57 47.3°F - 31.0°F 30.22in 4.0mph 54% 0.00in
13:02 47.7°F - 32.0°F 30.21in 5.0mph 54% 0.00in
13:07 47.9°F - 32.0°F 30.21in 4.0mph 53% 0.00in
13:12 48.0°F - 32.0°F 30.21in 2.0mph 53% 0.00in
13:17 48.3°F - 32.0°F 30.21in 2.0mph 53% 0.00in
13:22 48.7°F - 33.0°F 30.21in 2.0mph 53% 0.00in
13:27 49.4°F - 32.0°F 30.21in 1.0mph 52% 0.00in
13:32 50.1°F - 32.0°F 30.21in 5.0mph 50% 0.00in
13:37 50.1°F - 32.0°F 30.21in 4.0mph 50% 0.00in
13:42 49.9°F - 32.0°F 30.21in 1.0mph 50% 0.00in
13:47 50.1°F - 32.0°F 30.21in 3.0mph 50% 0.00in
13:52 50.2°F - 32.0°F 30.20in 3.0mph 50% 0.00in
13:57 50.2°F - 32.0°F 30.20in 4.0mph 50% 0.00in
13:58 50.2°F - 32.0°F 30.20in 4.0mph 50% 0.00in
14:03 50.3°F - 32.0°F 30.20in 4.0mph 50% 0.00in
14:08 50.8°F - 32.0°F 30.20in 2.6mph 49% 0.00in
14:13 51.3°F - 32.0°F 30.20in 3.0mph 48% 0.00in
14:18 51.4°F - 32.0°F 30.20in 5.0mph 48% 0.00in
14:23 51.1°F - 32.0°F 30.20in 4.0mph 48% 0.00in
14:28 51.0°F - 33.0°F 30.20in 3.5mph 49% 0.00in
14:33 51.3°F - 33.0°F 30.20in 4.4mph 49% 0.00in
14:38 51.0°F - 33.0°F 30.20in 4.0mph 49% 0.00in
14:43 50.1°F - 32.0°F 30.20in 4.0mph 49% 0.00in
14:48 49.9°F - 32.0°F 30.20in 4.0mph 50% 0.00in
14:53 50.4°F - 32.0°F 30.20in 15.0mph 49% 0.00in
14:58 51.1°F - 32.0°F 30.21in 7.0mph 48% 0.00in
15:03 51.5°F - 33.0°F 30.21in 11.0mph 48% 0.00in
15:08 51.3°F - 32.0°F 30.20in 2.8mph 48% 0.00in
15:13 50.8°F - 32.0°F 30.20in 5.0mph 48% 0.00in
15:23 50.2°F - 32.0°F 30.21in 14.0mph 49% 0.00in
15:38 50.5°F - 32.0°F 30.20in 16.0mph 49% 0.00in
15:43 50.7°F - 32.0°F 30.20in 5.0mph 49% 0.00in
15:48 50.7°F - 32.0°F 30.20in 13.0mph 49% 0.00in
15:58 50.1°F - 32.0°F 30.21in 6.0mph 50% 0.00in
16:03 50.1°F - 32.0°F 30.21in 7.0mph 50% 0.00in
16:08 50.0°F - 32.0°F 30.21in 2.0mph 50% 0.00in
16:13 49.9°F - 32.0°F 30.21in 8.0mph 50% 0.00in
16:18 49.7°F - 32.0°F 30.21in 2.0mph 50% 0.00in
16:23 49.4°F - 32.0°F 30.21in 3.0mph 50% 0.00in
16:28 49.3°F - 32.0°F 30.21in 5.0mph 51% 0.00in
16:33 49.3°F - 32.0°F 30.21in 0.0mph 51% 0.00in
16:38 49.2°F - 32.0°F 30.21in 6.0mph 51% 0.00in
16:43 49.3°F - 32.0°F 30.21in 2.0mph 51% 0.00in
16:48 49.4°F - 32.0°F 30.21in 11.7mph 51% 0.00in
16:53 49.2°F - 32.0°F 30.21in 11.0mph 51% 0.00in
17:08 47.2°F - 32.0°F 30.22in 7.0mph 56% 0.00in
17:18 46.3°F 44.9°F 32.0°F 30.22in 21.0mph 58% 0.00in
17:23 47.4°F - 32.0°F 30.22in 5.0mph 56% 0.00in
17:28 48.3°F - 33.0°F 30.23in 12.0mph 55% 0.00in
17:33 49.0°F - 33.0°F 30.23in 5.0mph 53% 0.00in
17:38 49.4°F - 32.0°F 30.23in 5.0mph 52% 0.00in
17:43 49.6°F - 33.0°F 30.23in 6.0mph 52% 0.00in
17:48 49.6°F - 33.0°F 30.23in 7.0mph 52% 0.00in
17:53 48.9°F - 33.0°F 30.23in 6.0mph 53% 0.00in
17:58 48.5°F - 33.0°F 30.23in 11.0mph 55% 0.00in
18:03 49.0°F - 33.0°F 30.23in 7.0mph 55% 0.00in
18:08 49.1°F - 35.0°F 30.23in 3.0mph 56% 0.00in
18:18 46.5°F - 33.0°F 30.23in 6.0mph 59% 0.00in
18:28 43.6°F - 32.0°F 30.22in 4.0mph 63% 0.00in
18:33 43.3°F - 32.0°F 30.21in 4.0mph 64% 0.00in
18:38 43.9°F - 33.0°F 30.21in 1.0mph 65% 0.00in
18:43 45.2°F - 33.0°F 30.21in 2.6mph 64% 0.00in
18:48 46.4°F - 35.0°F 30.22in 12.0mph 64% 0.00in
18:53 46.3°F - 33.0°F 30.23in 7.0mph 62% 0.00in
18:58 44.2°F - 32.0°F 30.23in 3.0mph 63% 0.00in
19:03 42.6°F - 32.0°F 30.23in 3.0mph 65% 0.00in
19:08 43.3°F 40.4°F 33.0°F 30.18in 9.0mph 67% 0.00in
19:13 45.0°F 42.1°F 35.0°F 30.23in 10.0mph 67% 0.00in
19:18 46.8°F - 36.0°F 30.23in 6.0mph 65% 0.00in
19:23 48.2°F - 36.0°F 30.23in 6.0mph 63% 0.00in
19:28 49.0°F - 36.0°F 30.23in 12.0mph 61% 0.00in
19:33 49.1°F - 36.0°F 30.24in 12.0mph 60% 0.00in
19:38 48.6°F - 36.0°F 30.24in 18.0mph 61% 0.00in
19:43 47.9°F - 36.0°F 30.24in 9.0mph 61% 0.00in
19:45 47.7°F - 35.0°F 30.24in 9.0mph 62% 0.00in
19:50 46.7°F - 35.0°F 30.24in 21.0mph 63% 0.00in
19:55 46.4°F - 35.0°F 30.24in 11.0mph 64% 0.00in
20:00 46.2°F 44.5°F 35.0°F 30.24in 11.0mph 64% 0.00in
20:05 45.9°F 41.5°F 35.0°F 30.24in 8.6mph 64% 0.00in
20:10 45.7°F 44.5°F 35.0°F 30.24in 10.0mph 64% 0.00in
20:15 45.7°F 43.6°F 35.0°F 30.24in 9.0mph 64% 0.00in
20:20 45.7°F 41.8°F 35.0°F 30.24in 8.0mph 64% 0.00in
20:25 45.3°F 42.3°F 33.0°F 30.24in 18.0mph 64% 0.00in
20:30 45.2°F - 35.0°F 30.24in 12.0mph 65% 0.00in
20:35 45.4°F 42.6°F 33.0°F 30.24in 6.0mph 64% 0.00in
20:40 45.1°F 42.9°F 33.0°F 30.24in 6.0mph 64% 0.00in
20:45 44.6°F 42.6°F 35.0°F 30.24in 8.0mph 65% 0.00in
20:50 44.5°F 40.7°F 35.0°F 30.24in 8.0mph 65% 0.00in
20:55 44.9°F 42.7°F 35.0°F 30.25in 7.0mph 65% 0.00in
21:00 44.7°F 42.6°F 35.0°F 30.24in 8.0mph 65% 0.00in
21:05 44.7°F 43.0°F 35.0°F 30.24in 9.0mph 65% 0.00in
21:10 45.0°F 41.8°F 35.0°F 30.24in 6.0mph 65% 0.00in
21:15 45.3°F - 35.0°F 30.24in 7.0mph 65% 0.00in
21:20 46.0°F 44.1°F 35.0°F 30.24in 8.0mph 64% 0.00in
21:25 46.7°F - 35.0°F 30.24in 7.0mph 63% 0.00in
21:30 46.9°F - 35.0°F 30.24in 7.0mph 63% 0.00in
21:35 47.0°F - 35.0°F 30.24in 9.0mph 63% 0.00in
21:40 46.5°F - 35.0°F 30.24in 7.0mph 63% 0.00in
21:45 46.0°F 44.0°F 35.0°F 30.23in 11.0mph 63% 0.00in
21:50 46.2°F 42.6°F 35.0°F 30.23in 20.0mph 65% 0.00in
21:55 46.5°F - 36.0°F 30.24in 8.0mph 65% 0.00in
22:00 46.7°F - 35.0°F 30.24in 15.0mph 64% 0.00in
22:05 46.4°F - 35.0°F 30.23in 15.0mph 64% 0.00in
22:10 46.0°F 43.0°F 35.0°F 30.23in 7.0mph 65% 0.00in
22:15 46.1°F 43.7°F 35.0°F 30.23in 9.0mph 66% 0.00in
22:20 46.1°F 44.2°F 35.0°F 30.22in 6.0mph 66% 0.00in
22:35 46.4°F - 35.0°F 30.23in 25.0mph 66% 0.00in
22:40 46.3°F 43.1°F 36.0°F 30.23in 13.0mph 67% 0.00in
22:45 46.0°F 42.9°F 36.0°F 30.23in 8.0mph 67% 0.00in
22:50 45.5°F 42.9°F 36.0°F 30.23in 7.0mph 67% 0.00in
22:55 45.4°F 41.9°F 35.0°F 30.23in 7.0mph 68% 0.00in
23:00 45.5°F 42.9°F 36.0°F 30.23in 7.0mph 68% 0.00in
23:05 45.6°F 42.8°F 36.0°F 30.23in 7.0mph 68% 0.00in
Comma Delimited File
Powered by Weather Underground, Inc.